To NAV CANADA Home Page Login to a new session Search on AWWS site Feedback and Comments Disclaimer Vers la page française équivalente Tips FAQ What's new on the site To the Forecasts and Observations / NOTAM section To "File a Flight Plan" website Publications and other links Update of the User's profile FIC Telephone Numbers My Weather Data Folder Route Weather Data Regional Weather Data Local Weather Data To the Forecasts and Observations / NOTAM section
Request Generated 07/02/2015 at 21:26:33 UTC . Weather information available at that time is displayed.

METAR/TAF

ST. LEONARD/NB    

LWIS CYSL 022100Z AUTO 24010KT 16/11 A2975=
LWIS CYSL 022000Z AUTO 25015G24KT 16/11 A2974=
LWIS CYSL 021900Z AUTO 23011G19KT 200V260 17/11 A2972=

CYSL - No TAF is issued for this station

Your time UTC time
Weather data provided by Environment Canada and NAV CANADA